Snowfall_Accumulation
0.0 0.0 0.0 0.0 0.0 0.0 0.0 0.0 1.0 0.0 0.0 0.0 0.0 0.0 0.0 0.0 0.0 0.0 0.0 0.0 0.0 0.0 0.0 0.0 0.0 0.0 0.0 0.0 0.0 0.0 0.0 0.0 0.0 0.0 0.0 0.0 0.0 0.0 0.0 0.0 0.0 0.0 0.0 0.0
0.1 0.0 0.0 0.0 0.0 0.0 0.0 0.0 0.0 0.0 0.0 0.0 0.0 0.0 0.0 0.0 0.0 0.0 0.0 0.0 0.0 0.0 0.0 0.0 0.0 0.0 0.0 0.0 0.0 0.0 0.0 0.0 0.0 0.0 0.0 0.0 0.0 0.0 0.0 0.0 0.0 0.0 0.0 0.0
0.3 0.0 0.0 0.1 0.0 0.0 0.0 0.0 0.0 0.0 0.0 0.0 0.0 0.0 0.0 0.0 0.0 0.0 0.0 0.0 0.0 0.0 0.0 0.0 0.0 0.0 0.0 0.0 0.0 0.0 0.0 0.0 0.0 0.0 0.0 0.0 0.0 0.0 0.0 0.0 0.0 0.0 0.0 0.0
1.2 0.0 0.8 0.0 0.0 0.0 0.0 0.0 0.0 0.0 0.0 0.0 0.0 0.0 0.0 0.0 0.0 0.0 0.0 0.0 0.0 0.0 0.0 0.0 0.0 0.0 0.0 0.0 0.0 0.0 0.0 0.0 0.0 0.0 0.0 0.0 0.0 0.0 0.0 0.0 0.0 0.0 0.0 0.0
1.2 0.3 0.0 0.0 0.0 0.0 0.0 0.0 0.0 0.0 0.0 0.0 0.0 0.0 0.0 0.0 0.0 0.0 0.0 0.0 0.0 0.0 0.0 0.0 0.0 0.0 0.0 0.0 0.0 0.0 0.0 0.0 0.0 0.0 0.0 0.0 0.0 0.0 0.0 0.0 0.0 0.0 0.0 0.0
0.8 1.8 0.1 0.0 0.0 0.0 0.0 0.4 0.0 0.0 0.0 0.0 0.0 0.0 0.0 0.0 0.0 0.0 0.0 0.0 0.0 0.0 0.0 0.0 0.0 0.0 0.0 0.0 0.0 0.0 0.0 0.0 0.0 0.0 0.0 0.0 0.0 0.0 0.0 0.0 0.0 0.0 0.0 0.0
0.3 2.2 0.1 0.0 0.0 0.0 0.1 0.1 0.0 0.0 0.0 0.0 0.0 0.0 0.0 0.0 0.0 0.0 0.0 0.0 0.0 0.0 0.0 0.0 0.0 0.0 0.0 0.0 0.0 0.0 0.0 0.0 0.0 0.0 0.0 0.0 0.0 0.0 0.0 0.1 0.1 0.0 0.0 0.0
1.5 3.2 3.5 0.0 0.0 0.1 0.1 0.0 0.0 0.0 0.0 0.0 0.0 0.0 0.0 0.0 0.0 0.0 0.0 0.0 0.0 0.0 0.0 0.0 0.0 0.0 0.0 0.0 0.0 0.0 0.0 0.0 0.0 0.0 0.0 0.0 0.1 0.0 0.0 0.1 0.8 0.3 0.4 0.2
0.3 0.1 0.0 0.0 0.0 0.0 0.0 0.0 0.0 0.0 0.0 0.0 0.0 0.0 0.0 0.0 0.0 0.0 0.0 0.0 0.0 0.0 0.0 0.0 0.0 0.0 0.0 0.0 0.0 0.0 0.0 0.0 0.0 0.0 0.0 0.0 0.2 0.3 0.9 0.4 1.2 1.2 0.9 0.8
0.0 0.0 0.0 0.0 0.0 0.0 0.0 0.0 0.0 0.0 0.0 0.0 0.0 0.0 0.0 0.0 0.0 0.0 0.0 0.0 0.0 0.0 0.0 0.0 0.0 0.0 0.0 0.0 0.0 0.1 0.2 0.1 0.0 0.1 0.1 0.0 0.2 0.5 1.7 1.3 1.9 1.0 1.2 1.6
0.1 0.0 0.0 0.0 0.0 0.0 0.0 0.0 0.0 0.0 0.0 0.0 0.0 0.0 0.0 0.0 0.0 0.0 0.0 0.0 0.0 0.0 0.0 0.0 0.0 0.0 0.0 0.0 0.1 0.2 0.2 0.3 0.5 0.3 0.4 0.8 0.6 1.8 3.6 0.8 3.2 7.7 2.6 2.0
0.1 0.0 0.0 0.0 0.0 0.1 0.1 0.2 0.2 0.2 0.1 0.1 0.0 0.0 0.0 0.0 0.0 0.0 0.1 0.0 0.0 0.0 0.0 0.0 0.0 0.0 0.0 0.0 0.1 0.4 0.4 0.5 1.0 1.8 1.4 1.6 2.6 2.7 nan nan nan nan nan 3.3
0.0 0.0 0.1 0.5 0.5 0.8 0.9 0.8 0.6 0.8 0.7 0.3 0.1 0.0 0.0 0.0 0.0 nan 0.0 0.0 0.0 0.0 0.0 0.0 0.0 0.0 0.0 0.1 0.2 0.4 0.8 0.8 1.4 1.2 1.9 2.6 3.0 3.2 4.1 0.5 nan nan nan nan
0.0 0.6 1.9 1.1 1.1 1.1 1.1 1.3 1.2 1.0 0.5 0.1 0.0 0.0 0.0 0.0 0.0 0.0 0.0 0.0 0.0 0.0 0.0 0.0 0.1 0.1 0.1 0.1 0.2 0.2 0.5 nan 1.4 1.6 1.8 2.8 3.0 3.0 2.5 3.4 4.0 2.7 nan nan
2.5 2.2 1.5 2.0 1.9 2.1 1.9 1.9 1.5 0.9 0.3 0.0 0.0 0.0 0.0 0.2 0.1 0.0 0.0 0.0 0.0 0.0 0.0 0.1 0.1 0.1 0.0 0.2 0.6 0.5 0.4 1.0 1.4 1.6 1.2 2.2 2.7 2.6 2.6 3.4 3.4 3.0 1.7 0.7
3.1 2.7 2.5 2.1 2.2 2.0 1.4 1.3 0.6 0.3 0.0 0.0 0.0 0.0 0.0 0.1 0.1 0.0 0.0 0.1 1.1 0.6 0.3 0.3 0.1 0.1 0.1 0.6 0.3 0.2 0.5 nan 1.3 1.8 1.6 2.0 2.4 3.1 3.8 3.2 3.9 2.8 2.9 2.8
2.9 2.8 2.1 2.1 1.6 1.5 1.0 0.6 0.3 0.1 0.2 0.1 0.1 0.1 0.1 0.1 0.0 0.0 0.0 0.1 0.4 0.5 0.4 0.4 0.5 0.2 0.7 0.2 0.4 1.2 1.0 0.5 nan 1.4 2.2 2.4 2.4 3.2 3.1 3.9 3.9 3.4 3.8 2.5
1.7 1.8 1.7 1.6 2.0 1.1 0.6 0.2 0.0 0.1 0.3 0.4 0.2 0.2 0.3 0.4 0.8 0.4 0.3 0.3 0.2 0.1 0.2 0.2 0.7 1.3 0.2 0.3 3.2 1.3 0.6 0.9 1.4 2.8 2.1 2.7 3.5 2.6 3.6 3.7 3.6 4.7 4.1 2.6
1.7 1.5 1.2 0.9 0.7 0.9 0.4 0.6 0.2 0.2 0.5 0.6 1.2 1.2 1.5 1.0 0.8 0.8 0.7 0.5 0.3 0.3 0.1 0.3 nan 0.1 0.1 0.4 1.2 0.8 1.3 2.2 2.6 3.0 2.8 nan 2.5 2.5 3.5 3.6 4.4 4.3 4.1 4.3
1.3 0.9 0.5 0.4 0.1 0.3 0.9 0.0 0.4 0.9 1.0 1.2 1.3 1.0 0.9 0.7 0.7 0.7 0.6 0.9 1.3 2.0 2.5 1.2 0.2 0.1 0.5 1.0 nan 1.2 2.2 3.3 4.2 4.0 3.5 3.7 3.5 4.0 3.4 nan 4.0 4.9 4.9 5.1
2.6 1.7 1.1 0.8 0.6 0.4 1.2 1.7 1.8 1.4 1.6 1.6 1.9 1.4 1.6 1.4 1.1 0.8 0.6 0.4 0.2 1.2 0.4 nan 0.3 1.4 1.4 1.4 0.9 1.7 3.3 4.7 5.8 5.9 4.8 4.9 4.3 3.7 4.0 4.1 5.2 5.1 6.2 6.0
2.0 3.6 4.5 2.7 1.6 1.7 2.0 2.1 1.6 1.5 1.5 1.3 1.1 0.8 0.6 0.6 0.5 0.4 0.7 2.4 1.1 nan 1.0 0.5 1.4 nan 2.3 nan 3.7 4.1 4.8 5.2 6.7 6.7 6.8 5.4 5.3 5.8 4.8 4.9 6.5 7.6 8.5 7.8
3.8 4.9 3.5 4.7 5.9 6.2 3.5 3.6 2.6 2.1 2.0 2.1 2.2 1.6 2.9 3.0 2.3 3.5 2.6 1.8 2.3 nan 1.2 1.9 nan nan nan 5.1 5.0 5.3 5.7 6.0 6.8 7.7 7.8 7.7 6.3 6.1 7.8 9.0 9.1 8.8 9.1 8.9
5.1 5.4 6.6 7.2 6.8 5.9 5.1 7.0 6.1 6.2 6.2 4.9 5.0 5.3 5.2 5.7 3.6 4.1 4.2 nan nan 4.8 4.7 5.5 nan nan nan 5.6 6.4 6.6 6.9 7.2 9.0 9.7 8.5 nan 7.7 9.1 9.1 9.7 11.9 9.2 9.1 9.3
5.0 5.2 5.9 5.3 4.7 6.4 5.2 6.0 4.5 5.6 5.4 4.5 5.0 5.8 5.6 6.6 9.0 9.5 6.0 6.8 nan 5.9 5.1 nan nan nan 4.8 5.8 7.0 7.5 9.2 10.9 13.3 14.5 13.4 14.8 16.1 15.5 12.1 13.0 13.1 12.6 13.6 11.5
3.3 5.7 5.3 5.0 6.4 5.3 5.3 3.5 4.5 5.7 4.3 4.0 3.9 5.1 5.3 5.8 6.3 5.4 5.9 7.3 6.8 nan 5.7 6.3 8.1 6.5 6.5 8.5 8.6 9.2 10.5 11.6 12.4 14.6 15.9 16.6 16.4 15.6 15.5 14.6 14.5 14.5 14.7 15.9
3.0 nan 2.7 2.2 2.2 3.0 4.2 5.3 3.5 4.8 4.5 5.7 5.7 5.9 5.5 4.8 5.4 5.4 nan 5.3 5.8 6.3 6.2 6.2 6.1 nan 8.4 9.9 10.4 11.1 11.3 12.7 nan 17.3 17.7 20.0 18.9 19.2 17.6 17.2 17.4 15.8 15.6 14.8
Water_Equivalent
0.00 0.00 0.00 0.00 0.00 0.00 0.00 0.00 0.14 0.00 0.00 0.00 0.00 0.00 0.00 0.00 0.00 0.00 0.00 0.00 0.00 0.00 0.00 0.00 0.00 0.00 0.00 0.00 0.00 0.00 0.00 0.00 0.00 0.00 0.00 0.00 0.00 0.00 0.00 0.00 0.00 0.00 0.00 0.00
0.03 0.00 0.00 0.00 0.00 0.01 0.00 0.00 0.00 0.00 0.00 0.00 0.00 0.00 0.00 0.00 0.00 0.00 0.00 0.00 0.00 0.00 0.00 0.00 0.00 0.00 0.00 0.00 0.00 0.00 0.00 0.00 0.00 0.00 0.00 0.00 0.00 0.00 0.00 0.00 0.00 0.00 0.00 0.00
0.04 0.00 0.00 0.02 0.00 0.00 0.00 0.00 0.00 0.00 0.00 0.00 0.00 0.00 0.00 0.00 0.00 0.00 0.00 0.00 0.00 0.00 0.00 0.00 0.00 0.00 0.00 0.00 0.00 0.00 0.00 0.00 0.00 0.00 0.00 0.00 0.00 0.00 0.00 0.00 0.00 0.00 0.00 0.00
0.34 0.01 0.19 0.00 0.00 0.00 0.00 0.00 0.01 0.00 0.00 0.00 0.00 0.00 0.00 0.00 0.00 0.00 0.00 0.00 0.00 0.00 0.00 0.00 0.00 0.00 0.00 0.00 0.00 0.00 0.00 0.00 0.00 0.00 0.00 0.00 0.00 0.00 0.00 0.00 0.00 0.00 0.00 0.00
0.27 0.08 0.00 0.00 0.00 0.00 0.00 0.01 0.00 0.00 0.00 0.00 0.00 0.00 0.00 0.00 0.00 0.00 0.00 0.00 0.00 0.00 0.00 0.00 0.00 0.00 0.00 0.00 0.00 0.00 0.00 0.00 0.00 0.00 0.00 0.00 0.00 0.00 0.00 0.00 0.00 0.00 0.00 0.00
0.11 0.21 0.02 0.00 0.00 0.00 0.00 0.07 0.00 0.00 0.00 0.00 0.00 0.00 0.00 0.00 0.00 0.00 0.00 0.00 0.00 0.00 0.00 0.00 0.00 0.00 0.00 0.00 0.00 0.00 0.00 0.00 0.00 0.00 0.00 0.00 0.00 0.00 0.00 0.00 0.00 0.00 0.00 0.00
0.04 0.27 0.01 0.00 0.00 0.00 0.02 0.02 0.00 0.00 0.00 0.00 0.00 0.00 0.00 0.00 0.00 0.00 0.00 0.00 0.00 0.00 0.00 0.00 0.00 0.00 0.00 0.00 0.00 0.00 0.00 0.00 0.00 0.00 0.00 0.00 0.00 0.00 0.00 0.01 0.01 0.01 0.01 0.00
0.16 0.39 0.53 0.00 0.00 0.02 0.01 0.00 0.00 0.00 0.00 0.00 0.00 0.00 0.00 0.00 0.00 0.00 0.00 0.00 0.00 0.00 0.00 0.00 0.00 0.00 0.00 0.00 0.00 0.00 0.00 0.00 0.00 0.00 0.00 0.00 0.01 0.00 0.00 0.02 0.12 0.07 0.09 0.06
0.05 0.02 0.00 0.00 0.00 0.00 0.00 0.00 0.00 0.00 0.00 0.00 0.00 0.00 0.00 0.00 0.00 0.00 0.00 0.00 0.00 0.00 0.00 0.00 0.00 0.00 0.00 0.00 0.00 0.00 0.00 0.00 0.00 0.00 0.00 0.00 0.03 0.04 0.16 0.08 0.25 0.25 0.19 0.17
0.01 0.00 0.00 0.00 0.00 0.00 0.00 0.00 0.00 0.00 0.00 0.00 0.00 0.00 0.00 0.00 0.00 0.00 0.00 0.00 0.00 0.00 0.00 0.00 0.00 0.00 0.00 0.00 0.00 0.01 0.04 0.03 0.01 0.01 0.01 0.01 0.03 0.09 0.29 0.28 0.37 0.22 0.24 0.28
0.02 0.00 0.01 0.01 0.00 0.01 0.01 0.00 0.01 0.01 0.00 0.00 0.00 0.00 0.00 0.00 0.00 0.00 0.00 0.00 0.00 0.00 0.00 0.00 0.00 0.00 0.00 0.00 0.01 0.02 0.03 0.07 0.10 0.07 0.07 0.17 0.15 0.33 0.52 0.12 0.44 1.03 0.41 0.31
0.03 0.00 0.00 0.00 0.00 0.01 0.02 0.03 0.03 0.02 0.01 0.01 0.00 0.00 0.00 0.00 0.00 0.00 0.01 0.00 0.00 0.00 0.00 0.00 0.00 0.00 0.00 0.00 0.02 0.04 0.05 0.10 0.20 0.35 0.30 0.35 0.55 0.66 nan nan nan nan nan 0.46
0.00 0.00 0.02 0.06 0.08 0.11 0.11 0.09 0.07 0.09 0.07 0.03 0.01 0.00 0.00 0.00 0.00 nan 0.00 0.00 0.00 0.00 0.00 0.00 0.00 0.00 0.00 0.01 0.02 0.04 0.09 0.11 0.21 0.25 0.36 0.47 0.60 0.51 0.62 0.14 nan nan nan nan
0.00 0.08 0.22 0.15 0.13 0.14 0.13 0.15 0.14 0.10 0.05 0.01 0.00 0.00 0.00 0.00 0.00 0.00 0.00 0.00 0.00 0.00 0.00 0.00 0.02 0.01 0.01 0.02 0.03 0.03 0.05 nan 0.21 0.27 0.31 0.48 0.54 0.52 0.44 0.54 0.64 0.56 nan nan
0.28 0.29 0.21 0.25 0.23 0.22 0.20 0.18 0.13 0.08 0.03 0.00 0.00 0.00 0.00 0.02 0.01 0.00 0.00 0.00 0.00 0.00 0.00 0.02 0.01 0.01 0.01 0.02 0.07 0.06 0.05 0.16 0.21 0.26 0.24 0.37 0.49 0.52 0.50 0.61 0.62 0.58 0.37 0.15
0.32 0.28 0.27 0.21 0.20 0.19 0.13 0.11 0.05 0.03 0.00 0.00 0.00 0.00 0.00 0.01 0.01 0.00 0.00 0.01 0.12 0.07 0.03 0.04 0.02 0.01 0.01 0.07 0.04 0.02 0.05 nan 0.21 0.29 0.28 0.39 0.47 0.54 0.62 0.59 0.72 0.53 0.53 0.50
0.36 0.29 0.21 0.20 0.14 0.13 0.09 0.05 0.02 0.01 0.02 0.01 0.01 0.01 0.01 0.01 0.01 0.00 0.01 0.02 0.05 0.06 0.06 0.05 0.05 0.02 0.09 0.03 0.05 0.13 0.12 0.10 nan 0.26 0.37 0.39 0.42 0.51 0.51 0.66 0.69 0.64 0.67 0.42
0.19 0.19 0.19 0.16 0.20 0.10 0.05 0.02 0.01 0.01 0.04 0.05 0.03 0.02 0.04 0.06 0.08 0.05 0.04 0.04 0.02 0.02 0.03 0.03 0.08 0.16 0.02 0.04 0.35 0.15 0.09 0.16 0.23 0.43 0.36 0.45 0.50 0.48 0.61 0.64 0.64 0.81 0.78 0.48
0.18 0.15 0.12 0.08 0.07 0.09 0.04 0.11 0.03 0.04 0.09 0.09 0.15 0.16 0.17 0.13 0.10 0.10 0.08 0.06 0.03 0.03 0.01 0.03 nan 0.02 0.02 0.04 0.14 0.11 0.26 0.45 0.51 0.53 0.46 nan 0.47 0.43 0.58 0.63 0.77 0.81 0.76 0.75
0.11 0.08 0.05 0.04 0.01 0.03 0.09 0.01 0.04 0.10 0.11 0.14 0.14 0.12 0.10 0.08 0.08 0.08 0.07 0.10 0.14 0.21 0.26 0.12 0.02 0.02 0.06 0.12 nan 0.23 0.45 0.61 0.71 0.65 0.55 0.60 0.58 0.65 0.61 nan 0.82 0.93 0.84 0.85
0.46 0.31 0.16 0.12 0.08 0.06 0.14 0.19 0.19 0.14 0.17 0.17 0.19 0.14 0.16 0.15 0.12 0.09 0.07 0.05 0.02 0.12 0.05 nan 0.05 0.17 0.18 0.23 0.19 0.31 0.60 0.81 1.00 0.97 0.82 0.79 0.74 0.63 0.67 0.77 0.95 0.88 1.02 0.87
0.27 0.50 0.64 0.38 0.21 0.19 0.24 0.24 0.17 0.16 0.16 0.13 0.12 0.08 0.07 0.07 0.05 0.06 0.09 0.28 0.14 nan 0.13 0.09 0.20 nan 0.35 nan 0.74 0.74 0.87 0.92 1.18 1.24 1.14 0.92 0.88 0.95 0.86 0.87 1.08 1.28 1.31 1.21
0.46 0.60 0.47 0.59 0.67 0.69 0.41 0.42 0.29 0.23 0.21 0.25 0.26 0.18 0.32 0.35 0.30 0.45 0.33 0.23 0.33 nan 0.22 0.31 nan nan nan 0.93 0.84 0.86 0.98 1.02 1.11 1.23 1.28 1.34 1.08 1.05 1.37 1.47 1.47 1.39 1.41 1.31
0.59 0.63 0.77 0.89 0.88 0.73 0.59 0.80 0.72 0.73 0.72 0.58 0.60 0.68 0.67 0.78 0.56 0.64 0.67 nan nan 0.71 0.72 0.83 nan nan nan 0.85 0.97 1.04 1.10 1.17 1.44 1.51 1.49 nan 1.40 1.60 1.53 1.49 1.70 1.39 1.36 1.34
0.58 0.65 0.74 0.64 0.56 0.74 0.60 0.71 0.56 0.68 0.64 0.51 0.59 0.70 0.69 0.88 1.09 1.12 0.77 0.87 nan 0.77 0.70 nan nan nan 0.68 0.80 0.97 1.03 1.25 1.44 1.73 2.11 1.91 2.13 2.29 2.16 1.74 1.82 1.82 1.80 1.96 1.65
0.37 0.62 0.57 0.54 0.71 0.61 0.62 0.42 0.50 0.65 0.50 0.44 0.42 0.53 0.60 0.68 0.74 0.63 0.69 0.84 0.77 nan 0.63 0.72 0.94 0.79 0.77 0.96 0.98 1.00 1.17 1.31 1.43 1.71 1.87 1.98 2.02 1.94 1.92 1.87 1.88 1.85 1.91 2.12
0.38 nan 0.31 0.25 0.25 0.35 0.47 0.58 0.38 0.52 0.49 0.60 0.58 0.61 0.57 0.51 0.59 0.59 nan 0.58 0.63 0.67 0.62 0.61 0.64 nan 0.89 1.01 1.00 1.05 1.08 1.27 nan 1.89 1.92 2.21 2.09 2.18 1.96 1.96 2.04 1.91 1.90 1.80
SL_Ratio
nan nan nan nan nan nan nan nan 7.0 nan 6.0 nan nan nan nan nan nan nan nan nan nan nan nan nan nan nan nan nan nan nan nan nan nan nan nan nan nan nan nan nan nan nan nan nan
3.8 nan nan nan nan 3.8 3.3 nan nan nan nan nan nan nan nan nan nan nan nan nan nan nan nan nan nan nan nan nan nan nan nan nan nan nan nan nan nan nan nan nan nan nan nan nan
6.4 nan nan 2.5 nan nan 5.0 nan nan 10.0 nan nan nan nan nan nan nan nan nan nan nan nan nan nan nan nan nan nan nan nan nan nan nan nan nan nan nan nan nan nan nan nan nan nan
3.4 2.7 4.1 2.5 nan nan nan 3.8 3.7 nan nan nan nan nan nan nan nan nan nan nan nan nan nan nan nan nan nan nan nan nan nan nan nan nan nan nan nan nan nan nan nan nan nan nan
4.6 3.6 nan 2.5 nan nan nan 5.4 nan nan nan nan nan nan nan nan nan nan nan nan nan nan nan nan nan nan nan nan nan nan nan nan nan nan nan nan 7.5 5.0 nan 7.5 nan 12.5 8.8 7.5
7.6 8.5 6.5 2.5 nan nan nan 6.4 nan nan nan nan nan nan nan nan nan nan nan nan nan nan nan nan nan nan nan nan nan nan nan nan nan nan 7.5 6.4 7.5 6.7 nan nan 9.2 7.9 7.9 7.5
7.1 8.2 4.4 nan nan nan 8.8 5.9 nan nan nan nan nan nan nan nan nan nan nan nan nan nan nan nan nan nan nan nan nan nan nan nan nan nan 6.0 5.6 6.4 nan 6.3 8.2 8.8 5.2 6.5 10.0
9.4 8.3 6.6 nan nan 7.1 6.0 nan nan nan nan nan nan nan nan nan nan nan nan nan nan nan nan nan nan nan nan nan nan nan nan nan nan nan 5.0 6.7 6.8 8.0 7.1 6.2 6.5 4.3 4.4 3.4
5.6 6.6 nan nan nan nan nan nan nan nan nan nan nan nan nan nan nan nan nan nan nan nan nan nan nan nan nan nan nan 7.5 7.0 6.4 10.0 nan 5.0 12.5 6.7 7.4 5.7 4.8 4.8 4.9 4.7 4.5
7.2 nan nan nan nan nan nan nan 7.5 10.0 nan nan nan nan nan nan nan nan nan nan nan nan nan nan nan nan nan nan 2.5 6.8 5.4 4.1 3.9 6.6 6.6 5.3 5.8 6.4 5.7 4.6 5.3 4.6 5.0 5.6
6.6 nan 5.6 5.6 6.3 6.3 7.5 7.5 7.0 7.0 6.4 7.5 nan nan nan nan nan nan nan nan nan nan nan nan nan nan nan nan 6.5 8.0 5.4 4.7 4.6 4.2 5.7 4.8 3.7 5.4 6.9 6.7 7.3 7.4 6.4 6.4
5.9 nan nan 7.5 4.6 5.4 7.5 8.6 8.0 8.6 8.9 8.1 8.8 7.5 nan nan nan nan 9.7 nan 2.5 nan nan nan nan nan nan 5.7 7.0 8.6 7.7 5.3 5.1 5.1 4.7 4.6 4.7 4.1 nan nan nan nan nan 7.2
nan 2.5 6.5 7.5 6.2 6.8 8.3 8.4 8.3 9.2 9.5 10.5 9.8 15.0 nan 12.5 nan nan nan nan nan 10.0 7.5 8.8 7.5 7.5 7.5 6.2 7.4 8.6 8.9 7.7 6.7 4.9 5.2 5.4 5.0 6.3 6.6 3.7 nan nan nan nan
6.1 7.7 8.3 7.5 8.7 7.9 8.3 8.5 8.7 10.2 10.4 10.1 8.3 nan nan 8.8 nan 5.0 10.0 nan nan 7.5 9.4 5.8 7.9 7.5 6.8 6.8 7.8 8.5 8.6 nan 6.5 6.1 6.0 5.8 5.5 5.8 5.6 6.3 6.2 4.8 nan nan
8.9 7.7 7.3 7.9 8.1 9.3 9.9 10.2 11.2 11.8 11.4 10.0 nan 8.8 8.5 9.9 10.0 10.8 nan 2.5 8.8 8.5 6.8 7.0 7.4 7.7 6.8 7.2 8.5 8.1 7.9 6.5 6.8 6.1 5.0 6.0 5.4 5.0 5.3 5.6 5.4 5.2 4.7 4.8
9.7 9.5 9.4 10.0 10.7 10.7 10.7 11.1 11.9 12.1 10.4 8.8 8.8 9.6 10.4 9.3 9.0 7.5 8.8 7.2 9.3 9.5 8.0 7.6 7.9 7.6 7.4 8.3 7.9 7.9 8.8 nan 6.2 6.2 5.7 5.1 5.1 5.8 6.1 5.5 5.4 5.3 5.3 5.6
8.2 9.7 10.4 10.4 11.2 11.3 11.2 11.0 10.9 9.8 9.8 10.4 10.4 9.5 9.3 9.3 8.4 7.5 7.3 7.3 7.7 7.9 7.8 7.9 8.5 8.3 8.1 7.3 8.2 9.2 7.9 4.9 nan 5.5 6.0 6.1 5.7 6.3 6.1 5.9 5.6 5.4 5.7 6.0
9.0 9.2 9.4 10.1 10.3 11.1 11.3 10.8 9.4 8.8 9.0 8.7 8.6 7.6 7.1 7.3 9.1 9.1 8.7 8.0 7.6 7.9 7.8 7.9 8.8 8.3 7.3 7.7 9.1 8.4 6.2 5.8 6.1 6.4 5.9 6.1 6.9 5.5 5.9 5.7 5.6 5.8 5.3 5.3
9.5 10.0 10.1 10.4 10.3 10.0 9.1 5.8 7.0 6.1 5.5 7.1 7.9 7.4 8.4 8.2 8.5 8.7 8.3 8.0 8.0 10.0 9.2 9.1 nan 7.0 7.6 8.8 8.2 7.2 5.0 5.0 5.2 5.6 6.1 nan 5.3 5.7 6.0 5.7 5.7 5.3 5.3 5.8
11.2 10.8 10.9 10.1 9.6 8.9 9.3 9.7 8.6 8.7 8.6 8.8 8.9 9.0 9.3 8.8 9.0 9.0 8.7 8.8 8.8 9.6 9.5 9.4 6.5 7.1 8.8 8.7 nan 4.9 4.8 5.4 5.9 6.1 6.3 6.1 6.0 6.2 5.5 nan 4.8 5.3 5.8 6.1
5.7 5.6 7.2 6.9 7.6 7.8 8.5 8.8 9.2 9.5 9.2 9.2 10.2 10.0 10.0 9.4 9.2 8.5 7.9 8.1 7.8 9.5 8.2 nan 5.7 8.2 7.6 6.3 4.8 5.5 5.5 5.8 5.8 6.1 5.9 6.1 5.7 5.9 5.9 5.3 5.5 5.8 6.1 6.8
7.4 7.1 7.0 7.0 8.0 8.8 8.5 8.8 9.2 9.6 9.7 9.8 9.4 9.4 8.8 8.3 8.6 7.9 7.8 8.5 7.8 nan 7.7 5.0 7.2 nan 6.4 nan 5.0 5.6 5.5 5.6 5.6 5.5 6.0 5.9 6.1 6.1 5.6 5.6 6.1 5.9 6.5 6.5
8.3 8.2 7.5 8.0 8.7 9.1 8.5 8.4 8.8 9.5 9.5 8.7 8.5 9.2 9.1 8.7 7.6 7.8 7.9 7.6 7.0 nan 5.6 6.3 nan nan nan 5.4 6.0 6.1 5.8 5.9 6.1 6.3 6.1 5.7 5.9 5.9 5.7 6.2 6.2 6.3 6.4 6.8
8.7 8.5 8.5 8.0 7.7 8.1 8.7 8.7 8.5 8.5 8.6 8.5 8.3 7.8 7.8 7.4 6.5 6.5 6.2 nan nan 6.7 6.5 6.6 nan nan nan 6.6 6.6 6.3 6.3 6.1 6.3 6.4 5.7 nan 5.5 5.7 5.9 6.5 7.0 6.6 6.7 6.9
8.6 8.0 8.0 8.3 8.4 8.6 8.7 8.4 8.2 8.2 8.5 8.8 8.5 8.3 8.0 7.6 8.2 8.5 7.8 7.8 nan 7.7 7.3 nan nan nan 7.1 7.2 7.2 7.3 7.4 7.6 7.7 6.8 7.0 7.0 7.0 7.2 6.9 7.2 7.2 7.0 6.9 7.0
9.1 9.3 9.3 9.3 9.0 8.7 8.5 8.3 9.0 8.8 8.7 9.2 9.4 9.5 8.8 8.6 8.5 8.6 8.6 8.7 8.9 nan 9.0 8.8 8.7 8.3 8.5 8.9 8.7 9.2 9.0 8.9 8.6 8.6 8.5 8.4 8.1 8.0 8.1 7.8 7.7 7.8 7.7 7.5
8.0 nan 8.9 8.7 8.8 8.7 8.9 9.1 9.0 9.4 9.3 9.6 9.9 9.6 9.6 9.5 9.1 9.2 nan 9.2 9.3 9.5 10.0 10.2 9.4 nan 9.5 9.8 10.4 10.6 10.4 10.0 nan 9.2 9.2 9.0 9.0 8.8 9.0 8.8 8.5 8.3 8.2 8.2